KD0RXN-4 Weather Reports


time (UTC)temp
F
wind
direction
speed
knots
gust
knots
rain 1hr
in
rain 24hr
in
rain mn
in
humidity
%
barometer
mb
20240723045019 72 74 0.0 0.0 0.00 0.00 0.00 83 1015.9
20240723044523 72 74 0.0 0.0 0.00 0.00 0.00 83 1016.0
20240723044049 72 74 0.0 0.0 0.00 0.00 0.00 83 1015.9
20240723043533 72 74 0.0 0.0 0.00 0.00 0.00 83 1016.0
20240723043019 72 74 0.0 0.0 0.00 0.00 0.00 83 1016.0
20240723042523 72 74 0.0 0.0 0.00 0.00 0.00 83 1016.0
20240723042028 72 74 0.0 0.0 0.00 0.00 0.00 82 1016.0
20240723041517 72 74 0.0 0.0 0.00 0.00 0.00 81 1016.1
20240723041043 73 74 0.0 0.0 0.00 0.00 0.00 81 1016.1
20240723040548 73 74 0.0 0.0 0.00 0.00 0.00 80 1016.0
20240723040031 73 74 0.0 0.0 0.00 0.00 0.00 80 1016.0
20240723035536 74 74 0.0 0.0 0.00 0.00 0.00 79 1016.0
20240723035021 74 74 0.0 0.0 0.00 0.00 0.00 79 1016.0
20240723034526 74 74 0.0 0.0 0.00 0.00 0.00 78 1015.9
20240723034030 74 74 0.0 0.0 0.00 0.00 0.00 78 1015.9
20240723033535 74 74 0.0 0.0 0.00 0.00 0.00 78 1015.8
20240723033041 74 74 0.0 0.0 0.00 0.00 0.00 78 1015.8
20240723032545 74 74 0.0 0.0 0.00 0.00 0.00 78 1015.8
20240723032029 74 74 0.0 0.0 0.00 0.00 0.00 78 1015.8
20240723031534 75 74 0.0 0.0 0.00 0.00 0.00 78 1015.8
20240723031023 75 74 0.0 0.0 0.00 0.00 0.00 78 1015.6
20240723030547 75 74 0.0 0.0 0.00 0.00 0.00 78 1015.8
20240723030032 75 74 0.0 0.0 0.00 0.00 0.00 78 1015.6
20240723025537 75 74 0.0 0.0 0.00 0.00 0.00 78 1015.6
20240723025022 74 74 0.0 0.0 0.00 0.00 0.00 79 1015.5
20240723024527 74 74 0.0 0.0 0.00 0.00 0.00 78 1015.5
20240723024031 74 74 0.0 0.0 0.00 0.00 0.00 78 1015.5
20240723023537 74 74 0.0 0.0 0.00 0.00 0.00 78 1015.4
20240723023022 74 74 0.0 0.0 0.00 0.00 0.00 78 1015.4
20240723022527 75 74 0.0 0.0 0.00 0.00 0.00 77 1015.3
20240723022030 75 74 0.0 0.0 0.00 0.00 0.00 76 1015.2
20240723021535 75 74 0.0 0.0 0.00 0.00 0.00 75 1015.1
20240723021024 75 74 0.0 0.0 0.00 0.00 0.00 75 1015.0
20240723020530 76 74 0.0 0.0 0.00 0.00 0.00 75 1014.9
20240723020035 76 74 0.0 0.0 0.00 0.00 0.00 74 1014.8
20240723015521 76 74 0.0 0.0 0.00 0.00 0.00 73 1014.8
20240723015046 76 74 0.0 0.0 0.00 0.00 0.00 73 1014.7
20240723014530 77 74 0.0 0.0 0.00 0.00 0.00 71 1014.6
20240723014057 77 74 0.0 0.0 0.00 0.00 0.00 70 1014.6
20240723013540 78 74 0.0 0.0 0.00 0.00 0.00 70 1014.5
20240723013045 78 74 0.0 0.0 0.00 0.00 0.00 69 1014.5
20240723012529 79 74 0.0 0.0 0.00 0.00 0.00 68 1014.4
20240723012034 79 74 0.0 0.0 0.00 0.00 0.00 67 1014.4
20240723011519 79 74 0.0 0.0 0.00 0.00 0.00 66 1014.3
20240723011044 80 74 0.0 0.0 0.00 0.00 0.00 65 1014.3
20240723010527 80 74 0.0 0.0 0.00 0.00 0.00 65 1014.4
20240723010033 80 74 0.0 0.0 0.00 0.00 0.00 64 1014.3
20240723005523 80 74 0.0 0.0 0.00 0.00 0.00 64 1014.3
20240723005028 80 74 0.0 0.0 0.00 0.00 0.00 63 1014.2
20240723004533 81 74 0.0 0.0 0.00 0.00 0.00 63 1014.2
20240723004019 81 74 0.0 0.0 0.00 0.00 0.00 63 1014.2
20240723003524 81 74 0.0 0.0 0.00 0.00 0.00 62 1014.1
20240723003029 81 74 0.0 0.0 0.00 0.00 0.00 61 1014.1
20240723002533 81 76 0.0 0.0 0.00 0.00 0.00 62 1014.0
20240723002018 81 73 0.0 0.0 0.00 0.00 0.00 61 1014.0
20240723001524 81 73 0.0 0.0 0.00 0.00 0.00 61 1013.9
20240723001029 81 74 0.0 0.0 0.00 0.00 0.00 61 1013.9
20240723000518 81 65 0.0 0.0 0.00 0.00 0.00 60 1013.9
20240723000044 82 62 0.0 0.0 0.00 0.00 0.00 60 1013.9
20240722235548 82 77 0.0 0.0 0.00 0.00 0.00 58 1013.8
20240722235031 82 46 0.0 0.0 0.00 0.00 0.00 58 1013.9
20240722234557 82 51 0.0 0.0 0.00 0.00 0.00 57 1013.8
20240722234021 82 48 0.0 0.0 0.00 0.00 0.00 57 1013.7
20240722233526 82 44 0.0 0.0 0.00 0.00 0.00 58 1013.8
20240722233051 82 93 0.0 0.0 0.00 0.00 0.00 59 1013.8
20240722232555 82 71 0.0 0.0 0.00 0.00 0.00 58 1013.7
20240722232039 82 78 0.0 0.0 0.00 0.00 0.00 58 1013.7
20240722231543 82 67 0.0 0.0 0.00 0.00 0.00 58 1013.8
20240722231028 82 90 0.0 0.0 0.00 0.00 0.00 57 1013.8
20240722230533 82 46 0.0 0.0 0.00 0.00 0.00 58 1013.7
20240722230018 82 92 0.0 0.0 0.00 0.00 0.00 58 1013.7
20240722225522 83 57 0.0 0.0 0.00 0.00 0.00 58 1013.7
20240722225049 82 355 0.0 0.0 0.00 0.00 0.00 59 1013.8
20240722224533 82 76 0.0 0.0 0.00 0.00 0.00 58 1013.8
20240722224022 82 78 0.0 0.0 0.00 0.00 0.00 58 1013.8
20240722223548 82 93 0.0 0.0 0.00 0.00 0.00 57 1013.9
20240722223032 82 76 0.0 0.0 0.00 0.00 0.00 57 1014.0
20240722222519 82 59 0.0 0.0 0.00 0.00 0.00 56 1014.1
20240722222043 82 62 0.0 0.0 0.00 0.00 0.00 58 1014.1
20240722221548 81 43 0.0 0.0 0.00 0.00 0.00 60 1014.2
20240722221032 81 74 0.0 0.0 0.00 0.00 0.00 59 1014.2
20240722220558 81 80 0.0 0.9 0.00 0.00 0.00 60 1014.2
20240722220022 81 89 0.0 0.0 0.00 0.00 0.00 61 1014.2
20240722215525 81 69 0.0 0.0 0.00 0.00 0.00 61 1014.2
20240722215049 82 57 0.0 0.9 0.00 0.00 0.00 61 1014.2
20240722214533 82 51 0.0 0.9 0.00 0.00 0.00 61 1014.3
20240722214018 83 70 0.0 0.9 0.00 0.00 0.00 60 1014.3
20240722213543 83 49 0.0 0.0 0.00 0.00 0.00 58 1014.4
20240722213046 83 102 0.0 0.0 0.00 0.00 0.00 58 1014.4
20240722212530 83 59 0.0 0.0 0.00 0.00 0.00 57 1014.5
20240722212019 84 80 0.0 0.0 0.00 0.00 0.00 57 1014.6
20240722211524 84 44 0.0 0.0 0.00 0.00 0.00 57 1014.7
20240722211030 83 146 0.0 0.0 0.00 0.00 0.00 59 1014.8
20240722210555 83 48 0.0 0.0 0.00 0.00 0.00 59 1014.8
20240722210017 83 66 0.0 0.0 0.00 0.00 0.00 58 1014.9
20240722205522 83 38 0.0 0.0 0.00 0.00 0.00 59 1015.0
20240722205028 83 43 0.0 0.0 0.00 0.00 0.00 59 1015.0
20240722204533 83 77 0.0 0.9 0.00 0.00 0.00 58 1015.0
20240722204018 83 40 0.0 0.9 0.00 0.00 0.00 56 1015.0
20240722203524 84 67 0.0 0.0 0.00 0.00 0.00 55 1015.1
20240722203029 84 80 0.0 0.0 0.00 0.00 0.00 55 1015.2
20240722202519 84 76 0.0 0.0 0.00 0.00 0.00 56 1015.2
20240722202023 84 67 0.0 0.0 0.00 0.00 0.00 54 1015.3
20240722201529 84 36 0.0 0.0 0.00 0.00 0.00 57 1015.4
20240722201034 83 98 0.0 0.0 0.00 0.00 0.00 60 1015.4
20240722200519 83 40 0.0 0.0 0.00 0.00 0.00 60 1015.5
20240722200044 82 44 0.0 0.0 0.00 0.00 0.00 62 1015.5
20240722195530 81 9 0.0 0.0 0.00 0.00 0.00 63 1015.6
20240722195035 81 76 0.0 0.0 0.00 0.00 0.00 62 1015.6
20240722194520 81 68 0.0 0.0 0.00 0.00 0.00 62 1015.8
20240722194025 81 55 0.0 0.0 0.00 0.00 0.00 62 1015.7
20240722193530 81 85 0.0 0.0 0.00 0.00 0.00 61 1015.9
20240722193019 81 71 0.0 0.0 0.00 0.00 0.00 60 1015.9
20240722192525 81 98 0.0 0.0 0.00 0.00 0.00 60 1015.9
20240722192029 81 78 0.0 0.0 0.00 0.00 0.00 59 1015.9
20240722191535 82 77 0.0 0.0 0.00 0.00 0.00 57 1015.9
20240722191040 82 55 0.0 0.0 0.00 0.00 0.00 58 1016.0
20240722190524 83 60 0.0 0.9 0.00 0.00 0.00 57 1016.1
20240722190030 84 64 0.0 0.0 0.00 0.00 0.00 58 1016.1
20240722185535 82 91 0.0 0.0 0.00 0.00 0.00 58 1016.1
20240722185020 82 255 0.0 0.0 0.00 0.00 0.00 59 1016.2
20240722184525 81 56 0.0 0.0 0.00 0.00 0.00 58 1016.3
20240722184030 81 92 0.0 0.0 0.00 0.00 0.00 62 1016.3
20240722183520 80 71 0.0 2.6 0.00 0.00 0.00 63 1016.3
20240722183024 80 59 0.0 2.6 0.00 0.00 0.00 63 1016.3
20240722182549 80 134 0.0 0.9 0.00 0.00 0.00 62 1016.4
20240722182054 80 84 0.0 0.9 0.00 0.00 0.00 62 1016.5
20240722181537 80 84 0.0 0.0 0.00 0.00 0.00 61 1016.5
20240722181023 81 71 0.0 0.0 0.00 0.00 0.00 60 1016.5
20240722180548 81 96 0.0 0.0 0.00 0.00 0.00 64 1016.6
20240722180033 81 40 0.0 0.0 0.00 0.00 0.00 67 1016.5
20240722175558 81 42 0.0 0.9 0.00 0.00 0.00 66 1016.6
20240722175042 80 40 0.0 0.9 0.00 0.00 0.00 69 1016.6
20240722174527 80 134 0.0 0.9 0.00 0.00 0.00 66 1016.6
20240722174033 80 86 0.0 0.0 0.00 0.00 0.00 66 1016.7
20240722173537 80 71 0.0 0.0 0.00 0.00 0.00 68 1016.7
20240722173021 79 20 0.0 0.0 0.00 0.00 0.00 72 1016.9
20240722172527 78 70 0.0 0.0 0.00 0.00 0.00 73 1016.9
20240722172035 77 73 0.0 0.0 0.00 0.00 0.00 76 1017.0
20240722171521 77 103 0.0 0.0 0.00 0.00 0.00 77 1017.0
20240722171025 77 284 0.0 0.0 0.00 0.00 0.00 79 1017.0
20240722170530 76 298 0.0 0.0 0.00 0.00 0.00 79 1017.1
20240722170036 77 298 0.0 0.0 0.00 0.00 0.00 80 1017.1
20240722165522 77 298 0.0 0.0 0.00 0.00 0.00 79 1017.1
20240722165047 77 298 0.0 0.0 0.00 0.00 0.00 78 1017.1
20240722164531 77 55 0.0 0.0 0.00 0.00 0.00 77 1017.1
20240722164036 77 51 0.0 0.0 0.00 0.00 0.00 74 1017.1
20240722163522 77 46 0.0 0.0 0.00 0.00 0.00 73 1017.1
20240722163019 76 45 0.0 0.0 0.00 0.00 0.00 73 1017.1
20240722162526 76 42 0.0 0.0 0.00 0.00 0.00 73 1017.1
20240722162033 76 76 0.0 0.0 0.00 0.00 0.00 72 1017.1
20240722161536 76 50 0.0 0.0 0.00 0.00 0.00 73 1017.2
20240722161023 76 57 0.0 0.0 0.00 0.00 0.00 73 1017.2
20240722160521 76 71 0.0 0.0 0.00 0.00 0.00 73 1017.2
20240722160045 76 82 0.0 0.0 0.00 0.00 0.00 73 1017.2
20240722155549 76 71 0.0 0.0 0.00 0.00 0.00 73 1017.2
20240722155055 76 42 0.0 0.0 0.00 0.00 0.00 74 1017.2
20240722154521 76 55 0.0 0.0 0.00 0.00 0.00 75 1017.1
20240722154027 75 181 0.0 0.0 0.00 0.00 0.00 76 1017.2
20240722153533 75 163 0.0 0.0 0.00 0.00 0.00 75 1017.2
20240722153019 75 75 0.0 0.0 0.00 0.00 0.00 76 1017.2
20240722152525 75 88 0.0 0.0 0.00 0.00 0.00 76 1017.2
20240722152036 75 159 0.0 0.0 0.00 0.00 0.00 77 1017.2
20240722151522 74 90 0.0 0.0 0.00 0.00 0.00 77 1017.2
20240722151028 74 161 0.0 0.0 0.00 0.00 0.00 77 1017.2
20240722150553 74 112 0.0 0.0 0.00 0.00 0.00 77 1017.1
20240722150017 75 148 0.0 0.0 0.00 0.00 0.00 76 1017.2
20240722145522 75 76 0.0 0.0 0.00 0.00 0.00 76 1017.2
20240722145028 75 95 0.0 0.0 0.00 0.00 0.00 76 1017.2
20240722144554 75 126 0.0 0.9 0.00 0.00 0.00 76 1017.3
20240722144018 75 70 0.0 0.9 0.00 0.00 0.00 76 1017.2
20240722143523 75 91 0.0 0.0 0.00 0.00 0.00 77 1017.2
20240722143028 75 107 0.0 0.0 0.00 0.00 0.00 77 1017.3
20240722142533 75 94 0.0 0.9 0.00 0.00 0.00 78 1017.3
20240722142041 74 73 0.0 0.9 0.00 0.00 0.00 78 1017.2
20240722141526 74 62 0.0 0.0 0.00 0.00 0.00 80 1017.2
20240722141050 73 85 0.0 0.9 0.00 0.00 0.00 80 1017.2
20240722140555 73 89 0.0 0.9 0.00 0.00 0.00 80 1017.2
20240722140019 73 87 0.0 0.0 0.00 0.00 0.00 81 1017.1
20240722135526 73 96 0.0 0.0 0.00 0.00 0.00 82 1017.0
20240722135031 72 107 0.0 0.0 0.00 0.00 0.00 83 1017.0
20240722134556 72 63 0.0 0.0 0.00 0.00 0.00 83 1017.0
20240722134020 71 82 0.0 0.0 0.00 0.00 0.00 84 1017.0
20240722133547 71 82 0.0 0.0 0.00 0.00 0.00 85 1017.0
20240722133032 70 94 0.0 0.0 0.00 0.00 0.00 86 1017.0
20240722132518 70 134 0.0 0.0 0.00 0.00 0.00 86 1016.8
20240722132025 69 94 0.0 0.0 0.00 0.00 0.00 88 1016.7
20240722131529 68 82 0.0 0.0 0.00 0.00 0.00 88 1016.7
20240722131019 68 81 0.0 0.0 0.00 0.00 0.00 88 1016.7
20240722130526 67 81 0.0 0.0 0.00 0.00 0.00 89 1016.7
20240722130033 67 74 0.0 0.0 0.00 0.00 0.00 89 1016.7
20240722125519 67 74 0.0 0.0 0.00 0.00 0.00 89 1016.6
20240722125045 66 75 0.0 0.0 0.00 0.00 0.00 89 1016.6
20240722124529 66 78 0.0 0.0 0.00 0.00 0.00 90 1016.6
20240722124035 66 78 0.0 0.0 0.00 0.00 0.00 89 1016.6
20240722123521 66 78 0.0 0.0 0.00 0.00 0.00 90 1016.6
20240722123048 65 97 0.0 0.0 0.00 0.00 0.00 90 1016.6
20240722122532 65 97 0.0 0.0 0.00 0.00 0.00 90 1016.6
20240722122018 65 97 0.0 0.0 0.00 0.03 0.00 90 1016.5
20240722121528 65 97 0.0 0.0 0.00 0.03 0.00 90 1016.5
20240722121034 65 97 0.0 0.0 0.00 0.03 0.00 90 1016.5
20240722120539 64 97 0.0 0.0 0.00 0.03 0.00 90 1016.5
20240722120025 64 97 0.0 0.0 0.00 0.03 0.00 90 1016.5
20240722115531 64 97 0.0 0.0 0.00 0.03 0.00 90 1016.4
20240722115018 64 97 0.0 0.0 0.00 0.03 0.00 90 1016.4
20240722114525 63 97 0.0 0.0 0.00 0.03 0.00 90 1016.4
20240722114031 64 97 0.0 0.0 0.00 0.03 0.00 90 1016.4
20240722113518 63 97 0.0 0.0 0.00 0.03 0.00 90 1016.4
20240722113044 63 97 0.0 0.0 0.00 0.03 0.00 90 1016.4
20240722112530 63 97 0.0 0.0 0.00 0.03 0.00 90 1016.4
20240722112020 63 97 0.0 0.0 0.00 0.03 0.00 90 1016.4
20240722111527 63 97 0.0 0.0 0.00 0.03 0.00 90 1016.4
20240722111033 63 97 0.0 0.0 0.00 0.03 0.00 90 1016.4
20240722110519 63 97 0.0 0.0 0.00 0.03 0.00 90 1016.3
20240722110025 63 97 0.0 0.0 0.00 0.03 0.00 90 1016.3
20240722105532 63 97 0.0 0.0 0.00 0.03 0.00 90 1016.2
20240722105018 63 97 0.0 0.0 0.00 0.03 0.00 90 1016.3
20240722104525 63 97 0.0 0.0 0.00 0.03 0.00 90 1016.2
20240722104031 63 97 0.0 0.0 0.00 0.03 0.00 90 1016.1
20240722103517 63 97 0.0 0.0 0.00 0.03 0.00 90 1016.0
20240722103027 63 97 0.0 0.0 0.00 0.03 0.00 89 1016.1
20240722102553 63 97 0.0 0.0 0.00 0.03 0.00 89 1016.0
20240722102018 63 97 0.0 0.0 0.00 0.07 0.00 89 1016.0
20240722101523 63 97 0.0 0.0 0.00 0.07 0.00 89 1015.9
20240722101049 63 97 0.0 0.0 0.00 0.07 0.00 89 1015.9
20240722100533 63 97 0.0 0.0 0.00 0.07 0.00 89 1015.9
20240722100018 63 97 0.0 0.0 0.00 0.07 0.00 89 1015.9
20240722095524 63 97 0.0 0.0 0.00 0.07 0.00 89 1015.8
20240722095029 63 97 0.0 0.0 0.00 0.07 0.00 89 1015.8
20240722094534 64 97 0.0 0.0 0.00 0.07 0.00 89 1015.7
20240722094019 64 97 0.0 0.0 0.00 0.07 0.00 89 1015.6
20240722093524 64 97 0.0 0.0 0.00 0.07 0.00 89 1015.6
20240722093034 64 97 0.0 0.0 0.00 0.07 0.00 89 1015.7
20240722092537 64 97 0.0 0.0 0.00 0.07 0.00 89 1015.7
20240722092020 64 97 0.0 0.0 0.00 0.07 0.07 89 1015.8
20240722091525 64 97 0.0 0.0 0.00 0.07 0.07 89 1015.8
20240722091050 64 97 0.0 0.0 0.00 0.07 0.07 89 1015.8
20240722090533 64 98 0.0 0.0 0.00 0.07 0.07 90 1015.8
20240722090019 63 98 0.0 0.0 0.00 0.07 0.07 90 1015.9
20240722085524 63 98 0.0 0.0 0.00 0.07 0.07 89 1015.9
20240722085030 63 98 0.0 0.0 0.00 0.07 0.07 89 1015.9
20240722084534 63 98 0.0 0.0 0.00 0.07 0.07 89 1016.0
20240722084039 63 98 0.0 0.0 0.00 0.07 0.07 89 1016.0
20240722083522 63 98 0.0 0.0 0.00 0.07 0.07 89 1016.0
20240722083030 63 98 0.0 0.0 0.00 0.07 0.07 89 1015.9
20240722082534 63 98 0.0 0.0 0.00 0.07 0.07 89 1016.0
20240722082020 63 98 0.0 0.0 0.00 0.07 0.07 89 1016.0
20240722081524 63 98 0.0 0.0 0.00 0.07 0.07 89 1016.1
20240722081049 63 98 0.0 0.0 0.00 0.07 0.07 89 1016.2
20240722080550 63 98 0.0 0.0 0.00 0.07 0.07 89 1016.2
20240722080035 64 98 0.0 0.0 0.00 0.07 0.07 89 1016.2
20240722075539 64 98 0.0 0.0 0.00 0.07 0.07 89 1016.3
20240722075023 64 98 0.0 0.0 0.00 0.07 0.07 89 1016.3
20240722074547 64 98 0.0 0.0 0.00 0.07 0.07 89 1016.3
20240722074030 64 98 0.0 0.0 0.00 0.07 0.07 89 1016.4
20240722073533 64 98 0.0 0.0 0.00 0.07 0.07 89 1016.4
20240722073038 64 98 0.0 0.0 0.00 0.07 0.07 88 1016.4
20240722072541 64 98 0.0 0.0 0.00 0.07 0.07 88 1016.5
20240722072025 64 98 0.0 0.0 0.00 0.07 0.07 89 1016.6
20240722071531 65 98 0.0 0.0 0.00 0.07 0.07 89 1016.6
20240722071019 65 98 0.0 0.0 0.00 0.07 0.07 89 1016.6
20240722070525 65 98 0.0 0.0 0.00 0.07 0.07 88 1016.6
20240722070032 65 98 0.0 0.0 0.00 0.07 0.07 88 1016.7
20240722065518 65 98 0.0 0.0 0.00 0.07 0.07 88 1016.6
20240722065023 65 98 0.0 0.0 0.00 0.07 0.07 88 1016.7
20240722064528 65 98 0.0 0.0 0.00 0.07 0.07 88 1016.9
20240722064054 65 98 0.0 0.0 0.00 0.07 0.07 88 1016.9
20240722063535 65 98 0.0 0.0 0.00 0.07 0.07 88 1016.9
20240722063020 65 98 0.0 0.0 0.00 0.07 0.07 88 1016.8
20240722062525 65 98 0.0 0.0 0.00 0.07 0.07 88 1016.9
20240722062051 65 98 0.0 0.0 0.00 0.07 0.07 88 1016.9
20240722061519 65 98 0.0 0.0 0.00 0.07 0.07 88 1016.8
20240722061024 65 98 0.0 0.0 0.00 0.07 0.07 88 1016.9
20240722060528 65 98 0.0 0.0 0.00 0.07 0.07 88 1017.0
20240722060034 65 98 0.0 0.0 0.00 0.07 0.07 88 1016.9
20240722055519 65 98 0.0 0.0 0.00 0.07 0.07 88 1016.9
20240722055025 65 98 0.0 0.0 0.00 0.07 0.07 88 1017.0
20240722054529 65 98 0.0 0.0 0.00 0.07 0.07 88 1017.1
20240722054033 66 98 0.0 0.0 0.00 0.07 0.07 88 1017.1
20240722053531 66 98 0.0 0.0 0.00 0.07 0.07 88 1017.1
20240722053028 66 98 0.0 0.0 0.00 0.07 0.07 88 1017.2
20240722052531 66 98 0.0 0.0 0.00 0.07 0.07 88 1017.2
20240722052056 66 98 0.0 0.0 0.00 0.07 0.07 88 1017.2
20240722051524 66 98 0.0 0.0 0.00 0.07 0.07 88 1017.2
20240722051029 66 98 0.0 0.0 0.00 0.07 0.07 88 1017.2
20240722050533 66 98 0.0 0.0 0.00 0.07 0.07 88 1017.2
20240722050021 66 98 0.0 0.0 0.00 0.07 0.07 88 1017.2